GW3011 Weather Reports


time (UTC)temp
C
wind
direction
speed
KPH
gust
KPH
rain 1hr
cm
rain 24hr
cm
rain mn
cm
humidity
%
barometer
mb
20260507110422 10 260 3.2 3.2 0.00 0.23 0.23 82 1009.6
20260507105919 10 306 3.2 3.2 0.00 0.23 0.23 82 1009.5
20260507105415 10 293 3.2 3.2 0.00 0.23 0.23 83 1009.4
20260507104912 10 305 3.2 3.2 0.00 0.23 0.23 82 1009.4
20260507104409 10 317 3.2 4.8 0.00 0.23 0.23 82 1009.2
20260507103904 10 301 1.6 3.2 0.00 0.23 0.23 83 1009.4
20260507103402 10 306 1.6 1.6 0.00 0.23 0.23 84 1009.3
20260507102857 10 303 3.2 4.8 0.00 0.23 0.23 84 1009.3
20260507102354 10 285 3.2 4.8 0.00 0.23 0.23 86 1009.2
20260507101850 10 279 6.4 6.4 0.00 0.23 0.23 86 1009.2
20260507101345 10 301 3.2 4.8 0.00 0.23 0.23 86 1009.1
20260507100842 10 202 3.2 3.2 0.00 0.23 0.23 88 1008.9
20260507100340 10 294 3.2 3.2 0.00 0.23 0.23 87 1008.7
20260507095838 10 282 1.6 3.2 0.00 0.23 0.23 89 1008.8
20260507095334 10 218 4.8 6.4 0.00 0.23 0.23 89 1008.8
20260507094832 10 274 0.0 1.6 0.00 0.23 0.23 89 1008.7
20260507094328 10 271 3.2 3.2 0.00 0.23 0.23 89 1008.7
20260507093825 10 293 3.2 3.2 0.00 0.23 0.23 89 1008.8
20260507093324 10 260 4.8 6.4 0.00 0.23 0.23 88 1008.6
20260507092821 10 271 3.2 3.2 0.13 0.23 0.23 89 1008.6
20260507092318 10 299 4.8 4.8 0.13 0.23 0.23 91 1008.7
20260507091814 10 295 3.2 3.2 0.00 0.20 0.20 91 1008.5
20260507091310 10 293 1.6 3.2 0.00 0.20 0.20 91 1008.6
20260507090805 10 276 1.6 3.2 0.00 0.20 0.20 91 1008.7
20260507090302 10 227 3.2 6.4 0.00 0.20 0.20 91 1008.9
20260507085759 10 281 3.2 3.2 0.00 0.20 0.20 90 1008.6
20260507085256 10 292 4.8 6.4 0.00 0.20 0.20 90 1008.6
20260507084754 10 298 4.8 4.8 0.00 0.20 0.20 90 1008.3
20260507084249 10 278 3.2 3.2 0.00 0.20 0.20 90 1008.9
20260507083747 10 243 6.4 6.4 0.00 0.20 0.20 88 1008.7
20260507083244 10 269 6.4 6.4 0.00 0.20 0.20 88 1008.7
20260507082740 10 237 3.2 4.8 0.00 0.20 0.20 89 1008.6
20260507082236 10 299 8.0 9.7 0.00 0.20 0.20 87 1008.4
20260507081733 10 300 8.0 11.3 0.00 0.20 0.20 88 1008.3
20260507081229 10 274 6.4 6.4 0.00 0.20 0.20 88 1008.6
20260507080726 10 302 4.8 4.8 0.00 0.20 0.20 89 1008.4
20260507080221 10 267 4.8 4.8 0.00 0.20 0.20 90 1008.5
20260507075717 10 274 4.8 6.4 0.00 0.20 0.20 91 1008.5
20260507075214 10 302 3.2 3.2 0.00 0.20 0.20 91 1009.0
20260507074710 10 260 3.2 3.2 0.00 0.20 0.20 91 1008.6
20260507074209 10 291 1.6 3.2 0.00 0.20 0.20 91 1008.9
20260507073704 10 255 4.8 6.4 0.00 0.20 0.20 91 1008.9
20260507073201 10 295 1.6 1.6 0.00 0.20 0.20 92 1008.8
20260507072659 10 221 6.4 6.4 0.00 0.20 0.20 91 1008.8
20260507072156 10 309 6.4 9.7 0.00 0.20 0.20 90 1009.0
20260507071654 10 245 3.2 4.8 0.00 0.20 0.20 92 1008.5
20260507071149 10 295 1.6 3.2 0.00 0.20 0.20 91 1008.8
20260507070647 10 274 6.4 9.7 0.00 0.20 0.20 92 1008.5
20260507070143 10 250 8.0 9.7 0.18 0.20 0.20 92 1008.6
20260507065640 11 269 6.4 9.7 0.18 0.20 0.20 93 1008.8
20260507065137 11 229 3.2 4.8 0.00 0.18 0.18 94 1008.6
20260507064634 11 284 4.8 4.8 0.00 0.18 0.18 94 1008.1
20260507064133 11 298 3.2 4.8 0.13 0.18 0.18 94 1008.2
20260507063630 11 257 6.4 6.4 0.13 0.18 0.18 93 1008.0
20260507063127 11 292 6.4 6.4 0.18 0.15 0.15 93 1008.2
20260507062624 11 249 6.4 6.4 0.18 0.15 0.15 92 1008.8
20260507062121 11 246 6.4 6.4 0.00 0.13 0.13 90 1008.6
20260507061619 11 228 6.4 6.4 0.18 0.13 0.13 91 1008.6
20260507061117 11 203 4.8 4.8 0.30 0.13 0.13 91 1008.0
20260507060615 11 305 1.6 3.2 0.13 0.10 0.10 90 1007.8
20260507060111 12 291 3.2 3.2 0.18 0.08 0.08 89 1007.6
20260507055606 12 297 3.2 3.2 0.18 0.08 0.08 86 1007.5
20260507055103 12 277 4.8 6.4 0.00 0.05 0.05 82 1008.7
20260507054558 13 293 6.4 6.4 0.00 0.05 0.05 79 1008.1
20260507054056 13 299 3.2 4.8 0.00 0.05 0.05 78 1008.0
20260507053554 13 312 6.4 6.4 0.00 0.05 0.05 76 1008.0
20260507053052 13 291 3.2 4.8 0.00 0.05 0.05 77 1007.8
20260507052550 13 298 4.8 4.8 0.00 0.05 0.05 76 1007.4
20260507052046 13 289 3.2 3.2 0.00 0.05 0.05 78 1007.5
20260507051544 13 282 4.8 9.7 0.00 0.05 0.05 77 1007.4
20260507051040 13 303 6.4 6.4 0.00 0.05 0.05 78 1007.6
20260507050537 13 262 4.8 4.8 0.00 0.05 0.05 79 1007.9
20260507050033 13 246 1.6 3.2 0.00 0.05 0.05 79 1007.9
20260507045530 13 250 3.2 4.8 0.00 0.05 0.05 79 1008.1
20260507045027 13 276 3.2 3.2 0.00 0.05 0.05 79 1008.1
20260507044524 13 283 1.6 3.2 0.00 0.05 0.05 78 1007.9
20260507044021 13 259 3.2 4.8 0.00 0.05 0.05 79 1008.0
20260507043517 13 264 3.2 3.2 0.00 0.05 0.05 79 1007.8
20260507043014 13 279 1.6 3.2 0.00 0.05 0.05 80 1008.0
20260507042510 13 284 3.2 3.2 0.00 0.05 0.05 79 1008.1
20260507042006 13 250 4.8 4.8 0.00 0.05 0.05 79 1008.1
20260507041503 13 250 3.2 3.2 0.00 0.05 0.05 79 1008.4
20260507041000 13 246 3.2 3.2 0.00 0.05 0.05 80 1008.1
20260507040455 13 264 4.8 4.8 0.00 0.05 0.05 80 1008.2
20260507035951 13 262 3.2 4.8 0.00 0.05 0.05 80 1008.1
20260507035448 13 299 1.6 1.6 0.00 0.05 0.05 81 1008.0
20260507034945 14 309 4.8 4.8 0.00 0.05 0.05 80 1008.0
20260507034442 14 236 6.4 6.4 0.00 0.05 0.05 79 1008.1
20260507033940 14 262 6.4 6.4 0.00 0.05 0.05 79 1008.0
20260507033438 14 263 3.2 4.8 0.00 0.05 0.05 79 1008.0
20260507032934 14 290 6.4 9.7 0.00 0.05 0.05 78 1007.9
20260507032431 14 267 11.3 14.5 0.00 0.05 0.05 79 1008.1
20260507031927 15 291 4.8 6.4 0.00 0.05 0.05 81 1008.0
20260507031426 15 297 6.4 6.4 0.00 0.05 0.05 84 1007.8
20260507030921 15 299 3.2 3.2 0.00 0.05 0.05 85 1007.7
20260507030418 15 299 3.2 4.8 0.00 0.05 0.05 87 1007.7
20260507025915 15 286 3.2 4.8 0.00 0.05 0.05 91 1007.7
20260507025412 15 290 1.6 1.6 0.00 0.05 0.05 91 1007.8
20260507024910 15 299 3.2 3.2 0.00 0.05 0.05 91 1007.9
20260507024407 16 282 6.4 9.7 0.00 0.05 0.05 91 1007.9
20260507023903 16 301 4.8 6.4 0.00 0.05 0.05 92 1007.9
20260507023400 16 273 6.4 6.4 0.00 0.05 0.05 92 1007.8
20260507022857 16 271 4.8 4.8 0.00 0.05 0.05 92 1008.0
20260507022354 16 224 3.2 3.2 0.00 0.05 0.05 92 1007.7
20260507021850 16 295 1.6 3.2 0.00 0.05 0.05 93 1007.8
20260507021345 16 257 4.8 4.8 0.00 0.05 0.05 93 1007.7
20260507020843 17 286 0.0 1.6 0.13 0.05 0.05 94 1007.7
20260507020339 17 259 0.0 1.6 0.13 0.05 0.05 93 1007.8
20260507015836 17 266 3.2 3.2 0.18 0.03 0.03 92 1007.5
20260507015335 17 266 6.4 6.4 0.18 0.03 0.03 89 1007.5
20260507014831 18 115 3.2 4.8 0.00 0.00 0.00 83 1007.4
20260507014328 18 226 9.7 11.3 0.00 0.00 0.00 83 1007.2
20260507013824 18 352 4.8 6.4 0.00 0.00 0.00 84 1007.2
20260507013321 18 301 0.0 0.0 0.00 0.00 0.00 84 1007.2
20260507012819 18 45 3.2 3.2 0.00 0.00 0.00 84 1007.6
20260507012314 18 230 3.2 3.2 0.00 0.00 0.00 84 1007.3
20260507011806 18 279 0.0 1.6 0.00 0.00 0.00 84 1007.4
20260507011303 18 310 0.0 0.0 0.00 0.00 0.00 85 1007.1
20260507010802 18 305 1.6 3.2 0.00 0.00 0.00 83 1007.1
20260507010258 18 275 1.6 3.2 0.00 0.00 0.00 83 1007.2
20260507005756 18 262 3.2 4.8 0.00 0.00 0.00 82 1007.0
20260507005252 19 302 1.6 1.6 0.00 0.00 0.00 81 1007.3
20260507004749 19 304 0.0 0.0 0.00 0.00 0.00 81 1007.1
20260507004247 19 279 1.6 1.6 0.00 0.00 0.00 80 1007.0
20260507003743 19 150 3.2 4.8 0.00 0.00 0.00 80 1007.1
20260507003238 19 129 6.4 6.4 0.00 0.00 0.00 80 1007.0
20260507002734 19 173 3.2 4.8 0.00 0.00 0.00 80 1006.9
20260507002230 19 266 3.2 3.2 0.00 0.00 0.00 80 1007.0
20260507001727 19 151 1.6 3.2 0.00 0.00 0.00 80 1007.3
20260507001225 19 292 3.2 4.8 0.00 0.00 0.00 80 1007.2
20260507000721 19 243 1.6 1.6 0.00 0.00 0.00 80 1007.2
20260507000216 19 175 3.2 4.8 0.00 0.00 0.00 80 1007.2
20260506235714 19 274 3.2 3.2 0.00 0.00 0.00 80 1006.9
20260506235209 19 222 8.0 11.3 0.00 0.00 0.00 79 1006.9
20260506234706 19 203 4.8 4.8 0.00 0.00 0.00 80 1007.1
20260506234204 19 194 3.2 4.8 0.00 0.00 0.00 80 1006.8
20260506233701 19 268 3.2 4.8 0.00 0.00 0.00 80 1006.8
20260506233157 19 289 0.0 0.0 0.00 0.00 0.00 80 1006.6
20260506232654 19 311 1.6 3.2 0.00 0.00 0.00 80 1006.7
20260506232149 19 295 6.4 11.3 0.00 0.00 0.00 80 1007.0
20260506231646 19 188 4.8 6.4 0.00 0.00 0.00 80 1006.9
20260506231145 19 197 3.2 4.8 0.00 0.00 0.00 80 1006.6
20260506230641 19 203 8.0 12.9 0.00 0.00 0.00 80 1006.4
20260506230138 19 262 6.4 6.4 0.00 0.00 0.00 80 1006.9
20260506225635 19 198 4.8 11.3 0.00 0.00 0.00 80 1006.8
20260506225131 19 275 1.6 3.2 0.00 0.00 0.00 80 1006.7
20260506224628 19 173 6.4 9.7 0.00 0.00 0.00 80 1006.6
20260506224124 19 298 3.2 4.8 0.00 0.00 0.00 80 1006.7
20260506223621 19 192 1.6 3.2 0.00 0.00 0.00 80 1006.6
20260506223117 19 358 3.2 6.4 0.00 0.00 0.00 80 1006.6
20260506222614 19 175 8.0 9.7 0.00 0.00 0.00 80 1006.4
20260506222110 19 164 6.4 9.7 0.00 0.00 0.00 80 1006.6
20260506221608 19 190 6.4 9.7 0.00 0.00 0.00 80 1006.4
20260506221106 19 220 1.6 4.8 0.00 0.00 0.00 80 1006.4
20260506220602 19 199 8.0 11.3 0.00 0.00 0.00 81 1006.4
20260506220057 18 267 1.6 1.6 0.00 0.00 0.00 81 1006.6
20260506215554 18 238 3.2 3.2 0.00 0.00 0.00 81 1006.6
20260506215050 18 300 3.2 3.2 0.00 0.00 0.00 81 1006.4
20260506214547 18 182 9.7 14.5 0.00 0.00 0.00 81 1006.3
20260506214044 18 266 1.6 3.2 0.00 0.00 0.00 82 1006.3
20260506213543 18 190 4.8 11.3 0.00 0.00 0.00 81 1006.3
20260506213040 18 228 3.2 4.8 0.00 0.00 0.00 82 1006.1
20260506212536 18 301 4.8 4.8 0.00 0.00 0.00 81 1006.2
20260506212031 18 178 4.8 4.8 0.00 0.00 0.00 82 1006.2
20260506211527 18 95 3.2 4.8 0.00 0.00 0.00 82 1006.1
20260506211024 18 136 4.8 9.7 0.00 0.00 0.00 82 1006.2
20260506210521 18 181 6.4 14.5 0.00 0.00 0.00 82 1006.2
20260506210018 18 230 4.8 6.4 0.00 0.00 0.00 82 1006.0
20260506205514 18 157 4.8 6.4 0.00 0.00 0.00 82 1005.9
20260506205009 18 186 1.6 3.2 0.00 0.00 0.00 82 1005.9
20260506204508 18 205 4.8 9.7 0.00 0.05 0.05 82 1005.8
20260506204004 18 180 4.8 6.4 0.00 0.05 0.05 83 1005.7
20260506203503 18 237 0.0 1.6 0.00 0.05 0.05 83 1006.0
20260506202959 18 167 6.4 11.3 0.00 0.05 0.05 83 1005.9
20260506202456 18 97 11.3 12.9 0.00 0.05 0.05 83 1006.2
20260506201952 18 192 6.4 6.4 0.00 0.05 0.05 83 1006.0
20260506201450 18 210 8.0 14.5 0.00 0.05 0.05 83 1006.2
20260506200947 18 178 9.7 14.5 0.00 0.05 0.05 83 1006.3
20260506200443 18 223 8.0 12.9 0.00 0.05 0.05 83 1006.6
20260506195939 18 177 9.7 12.9 0.00 0.05 0.05 83 1006.4
20260506195436 18 190 4.8 9.7 0.00 0.05 0.05 84 1006.2
20260506194933 17 223 1.6 4.8 0.00 0.05 0.05 86 1006.3
20260506194430 17 165 6.4 6.4 0.00 0.05 0.05 85 1006.3
20260506193927 17 279 0.0 0.0 0.00 0.05 0.05 86 1006.6
20260506193424 17 190 6.4 11.3 0.00 0.05 0.05 86 1006.7
20260506192920 17 227 8.0 11.3 0.00 0.05 0.05 85 1007.0
20260506192417 17 250 4.8 9.7 0.13 0.05 0.05 85 1006.6
20260506191915 17 168 9.7 24.1 0.13 0.05 0.05 85 1006.9
20260506191411 17 183 3.2 9.7 0.00 0.03 0.03 86 1006.4
20260506190908 17 208 8.0 16.1 0.00 0.03 0.03 87 1006.8
20260506190404 17 308 1.6 1.6 0.00 0.03 0.03 87 1006.8
20260506185901 16 312 1.6 3.2 0.00 0.03 0.03 87 1006.8
20260506185358 16 299 6.4 11.3 0.00 0.03 0.03 86 1007.0
20260506184855 16 319 3.2 4.8 0.00 0.03 0.03 86 1006.9
20260506184352 16 310 0.0 0.0 0.00 0.03 0.03 86 1007.1
20260506183850 16 30 3.2 3.2 0.00 0.03 0.03 85 1006.6
20260506183344 16 347 3.2 4.8 0.00 0.03 0.03 84 1006.9
20260506182842 16 20 4.8 6.4 0.00 0.03 0.03 84 1006.7
20260506182339 16 23 6.4 9.7 0.00 0.03 0.03 84 1007.2
20260506181837 16 40 6.4 9.7 0.00 0.03 0.03 83 1007.1
20260506181334 16 309 3.2 4.8 0.00 0.03 0.03 83 1007.5
20260506180826 17 35 1.6 3.2 0.00 0.03 0.03 83 1007.3
20260506180321 17 308 1.6 1.6 0.00 0.03 0.03 83 1007.3
20260506175818 17 347 1.6 3.2 0.00 0.03 0.03 84 1007.2
20260506175315 17 341 6.4 9.7 0.00 0.03 0.03 82 1007.2
20260506174812 18 60 6.4 9.7 0.00 0.03 0.03 80 1007.1
20260506174309 19 311 0.0 1.6 0.00 0.03 0.03 79 1007.3
20260506173807 19 315 4.8 9.7 0.00 0.03 0.03 78 1007.2
20260506173303 18 221 4.8 4.8 0.00 0.03 0.03 78 1007.1
20260506172800 18 294 4.8 6.4 0.00 0.03 0.03 78 1007.2
20260506172257 18 323 6.4 9.7 0.00 0.03 0.03 78 1007.5
20260506171755 18 280 1.6 1.6 0.00 0.03 0.03 79 1007.4
20260506171252 18 197 3.2 4.8 0.00 0.03 0.03 79 1007.9
20260506170749 19 284 8.0 12.9 0.00 0.03 0.03 78 1007.9
20260506170245 18 3 8.0 12.9 0.18 0.03 0.03 78 1007.9
20260506165744 18 198 14.5 16.1 0.18 0.03 0.03 78 1008.3
20260506165241 19 295 6.4 11.3 0.00 0.00 0.00 79 1008.1
20260506164738 19 50 6.4 11.3 0.00 0.00 0.00 77 1008.4
20260506164235 19 239 8.0 12.9 0.00 0.00 0.00 77 1008.3
20260506163732 19 189 3.2 6.4 0.00 0.00 0.00 77 1008.4
20260506163226 19 328 4.8 6.4 0.00 0.00 0.00 76 1008.3
20260506162723 19 268 6.4 9.7 0.00 0.00 0.00 75 1008.2
20260506162221 20 169 6.4 6.4 0.00 0.00 0.00 72 1008.5
20260506161718 20 161 3.2 4.8 0.00 0.00 0.00 68 1008.4
20260506161215 21 214 9.7 12.9 0.00 0.00 0.00 64 1008.6
20260506160713 21 125 6.4 12.9 0.00 0.00 0.00 63 1008.8
20260506160209 21 164 6.4 9.7 0.00 0.00 0.00 63 1008.5
20260506155707 21 183 8.0 12.9 0.00 0.00 0.00 62 1008.7
20260506155204 21 166 4.8 9.7 0.00 0.00 0.00 62 1008.6
20260506153312 21 140 22.5 25.7 0.00 0.00 0.00 63 1008.6
20260506152808 21 205 14.5 22.5 0.00 0.00 0.00 63 1008.3
20260506152306 21 306 8.0 11.3 0.00 0.00 0.00 63 1008.6
20260506151805 21 130 12.9 16.1 0.00 0.00 0.00 63 1008.5
20260506151301 21 183 14.5 17.7 0.00 0.00 0.00 63 1008.8
20260506150757 20 138 8.0 14.5 0.00 0.00 0.00 66 1008.8
20260506150303 20 306 0.0 0.0 0.00 0.00 0.00 69 1008.9
20260506145752 19 304 4.8 4.8 0.00 0.00 0.00 69 1008.8
20260506145248 20 89 4.8 4.8 0.00 0.00 0.00 68 1008.8
20260506144746 20 55 4.8 4.8 0.00 0.00 0.00 69 1008.9
20260506144242 20 297 3.2 3.2 0.00 0.00 0.00 67 1009.1
20260506143740 21 280 0.0 0.0 0.00 0.00 0.00 66 1008.8
20260506143237 20 174 3.2 4.8 0.00 0.00 0.00 68 1008.7
20260506142736 20 136 6.4 6.4 0.00 0.00 0.00 69 1008.9
20260506142233 20 227 6.4 6.4 0.00 0.00 0.00 69 1008.7
20260506141731 20 216 4.8 6.4 0.00 0.00 0.00 69 1008.5
20260506141229 20 150 8.0 11.3 0.00 0.00 0.00 69 1008.7
20260506140727 20 169 8.0 17.7 0.00 0.00 0.00 69 1008.7
20260506140223 20 126 11.3 16.1 0.00 0.00 0.00 69 1008.8
20260506135720 20 143 3.2 9.7 0.00 0.00 0.00 69 1009.0
20260506135216 20 65 3.2 6.4 0.00 0.00 0.00 69 1009.1
20260506134713 20 204 3.2 3.2 0.00 0.00 0.00 70 1008.9
20260506134209 20 175 9.7 12.9 0.00 0.00 0.00 70 1008.9
20260506133707 20 190 9.7 11.3 0.00 0.00 0.00 70 1008.9
20260506133203 20 278 4.8 11.3 0.00 0.00 0.00 70 1009.2
20260506132701 19 189 12.9 17.7 0.00 0.00 0.00 72 1009.1
20260506132157 19 170 6.4 9.7 0.00 0.00 0.00 72 1009.4
20260506131655 19 169 8.0 11.3 0.00 0.00 0.00 72 1008.9
20260506131151 19 121 16.1 17.7 0.00 0.00 0.00 72 1009.1
20260506130648 19 338 3.2 3.2 0.00 0.00 0.00 71 1009.2
20260506130145 19 249 4.8 9.7 0.00 0.00 0.00 72 1008.9
20260506125644 19 150 4.8 4.8 0.00 0.00 0.00 72 1008.9
20260506125141 19 128 9.7 11.3 0.00 0.00 0.00 72 1008.9
20260506124639 18 223 6.4 11.3 0.00 0.00 0.00 73 1008.8
20260506124136 18 133 3.2 4.8 0.00 0.00 0.00 74 1009.2
20260506123634 18 308 3.2 4.8 0.00 0.00 0.00 74 1009.1
20260506123132 18 79 6.4 12.9 0.00 0.00 0.00 75 1009.1
20260506122629 18 281 1.6 3.2 0.00 0.00 0.00 75 1009.1
20260506122126 18 163 9.7 12.9 0.00 0.00 0.00 75 1009.1
20260506121624 18 304 4.8 6.4 0.00 0.00 0.00 74 1009.3
20260506121120 18 229 6.4 11.3 0.00 0.00 0.00 74 1009.4
20260506120618 18 139 8.0 9.7 0.00 0.00 0.00 74 1009.6
20260506120115 18 204 9.7 11.3 0.00 0.00 0.00 75 1009.4
20260506115614 18 174 6.4 11.3 0.00 0.00 0.00 74 1009.4
20260506115112 18 127 4.8 12.9 0.00 0.00 0.00 75 1009.4
20260506114608 18 173 8.0 11.3 0.00 0.00 0.00 76 1009.3
20260506114107 18 173 6.4 6.4 0.00 0.00 0.00 76 1009.6
20260506113604 17 283 6.4 9.7 0.00 0.00 0.00 77 1009.5
20260506113101 17 139 8.0 9.7 0.00 0.00 0.00 78 1009.3
20260506112557 17 205 6.4 11.3 0.00 0.00 0.00 78 1009.5
20260506112055 17 280 6.4 11.3 0.00 0.00 0.00 78 1009.5
20260506111553 17 152 16.1 27.4 0.00 0.00 0.00 79 1009.1
20260506111050 17 27 6.4 14.5 0.00 0.00 0.00 78 1009.1